User: anonymous   Login
Location: Unspecified
(0.0000°N, 0.0000°E)
Time: 05:21:15
(UTC+00:00)
Language:

STARLINK-32323 - Orbit

View from above orbital plane
View from above orbital plane
View from above satellite
View from above satellite

Ground track
Ground track

The orbit is defined by the following mean orbital elements,

1 61677U          26145.24518688 +.00000000 +00000-0 +97611-5 0 00009
2 61677  53.1612  94.2792 0001347  86.7034 273.4123 15.34383042    08
Epoch (UTC): 25 May 2026 05:53:04
Eccentricity: 0.0001347
inclination: 53.1612°
perigee height: 462 km
apogee height: 464 km
right ascension of ascending node: 94.2792°
argument of perigee: 86.7034°
revolutions per day: 15.34383042
mean anomaly at epoch: 273.4123°

The dashed part of the orbit path shows where the satellite is in the earth's shadow,  

DLR